Back to catalog

ARIANE 44L+ DEB

SPELDA

AliveHEO
NORAD 21942·DEBRIS·🇫🇷 France

Launched Apr 15, 1992 from Guiana Space Centre

Loading…

Next Passes (next 24 hours)

TLE

FreshSource: Space-Track

Epoch: Sep 14, 2026, 06:42 UTC

1 21942U 92021D   26257.27921950  .00044968  00000-0  45456-2 0  9996
2 21942   4.3589 285.3008 5865157 262.2330  31.1731  4.27757841402120

Track ARIANE 44L+ DEB in real time with AllMySat

Download on the App Store